TimeCDT,TemperatureF,Dew PointF,Humidity,Sea Level PressureIn,VisibilityMPH,Wind Direction,Wind SpeedMPH,Gust SpeedMPH,PrecipitationIn,Events,Conditions,WindDirDegrees,DateUTC
12:53 AM,66.9,64.0,90,30.11,8.0,Calm,Calm,-,N/A,,Clear,0,2012-10-04 05:53:00
1:53 AM,66.9,64.0,90,30.12,7.0,East,3.5,-,N/A,,Clear,80,2012-10-04 06:53:00
2:53 AM,66.0,63.0,90,30.12,5.0,East,3.5,-,N/A,,Clear,100,2012-10-04 07:53:00
3:53 AM,66.0,64.0,93,30.13,4.0,Calm,Calm,-,N/A,,Clear,0,2012-10-04 08:53:00
4:53 AM,66.0,64.0,93,30.14,3.0,East,3.5,-,N/A,,Clear,90,2012-10-04 09:53:00
5:20 AM,66.2,64.4,94,30.15,2.5,Calm,Calm,-,N/A,,Clear,0,2012-10-04 10:20:00
5:28 AM,66.2,64.4,94,30.15,3.0,Calm,Calm,-,N/A,,Clear,0,2012-10-04 10:28:00
5:53 AM,66.0,64.0,93,30.15,4.0,ENE,3.5,-,N/A,,Clear,70,2012-10-04 10:53:00
6:53 AM,64.9,63.0,93,30.17,3.0,East,4.6,-,N/A,,Clear,100,2012-10-04 11:53:00
7:53 AM,69.1,66.0,90,30.18,4.0,East,5.8,-,N/A,,Clear,90,2012-10-04 12:53:00
8:53 AM,73.9,70.0,87,30.19,10.0,ESE,8.1,-,N/A,,Clear,110,2012-10-04 13:53:00
9:53 AM,79.0,70.0,74,30.21,10.0,ESE,10.4,-,N/A,,Clear,110,2012-10-04 14:53:00
10:53 AM,82.0,66.0,58,30.21,10.0,ESE,9.2,-,N/A,,Clear,120,2012-10-04 15:53:00
11:53 AM,84.9,64.9,51,30.20,10.0,ESE,10.4,17.3,N/A,,Clear,120,2012-10-04 16:53:00
12:53 PM,84.9,64.9,51,30.19,10.0,SE,6.9,-,N/A,,Partly Cloudy,130,2012-10-04 17:53:00
1:53 PM,84.9,64.0,49,30.16,10.0,ENE,4.6,-,N/A,,Scattered Clouds,70,2012-10-04 18:53:00
2:53 PM,86.0,64.0,48,30.15,10.0,SSE,6.9,-,N/A,,Partly Cloudy,150,2012-10-04 19:53:00
3:53 PM,87.1,63.0,44,30.14,10.0,East,4.6,-,N/A,,Scattered Clouds,100,2012-10-04 20:53:00
4:53 PM,86.0,62.1,44,30.13,10.0,Calm,Calm,-,N/A,,Clear,0,2012-10-04 21:53:00
5:53 PM,84.9,61.0,44,30.14,10.0,ENE,4.6,-,N/A,,Clear,70,2012-10-04 22:53:00
6:53 PM,81.0,63.0,54,30.14,10.0,East,3.5,-,N/A,,Clear,80,2012-10-04 23:53:00
7:53 PM,77.0,64.9,66,30.14,10.0,Calm,Calm,-,N/A,,Clear,0,2012-10-05 00:53:00
8:53 PM,73.0,66.9,81,30.14,10.0,Calm,Calm,-,N/A,,Clear,0,2012-10-05 01:53:00
9:53 PM,73.0,69.1,87,30.15,10.0,Calm,Calm,-,N/A,,Clear,0,2012-10-05 02:53:00
10:53 PM,72.0,66.0,81,30.16,10.0,Calm,Calm,-,N/A,,Partly Cloudy,0,2012-10-05 03:53:00
11:53 PM,69.1,64.9,87,30.15,10.0,ESE,3.5,-,N/A,,Clear,120,2012-10-05 04:53:00